Погода в Арвайхээре

Монголия     46°15′37″N   102°46′31″E
темп.,
°C
ветер,
м/с
пор.,
м/с
влажн.,
%
обл.,
%
осадки,
мм/ч
давл.,
гПа
погр.,
м
10 августа, ср
ср1023:00+15с588455 0.0 1008305
02:00+14св228598 0.1 1008109
05:00+14сз2383100 0.0 100782
08:00+15ссз117573 0.0 1007199
11:00+20вюв12555 0.0 1005877
14:00+22всв445041 0.1 1004914
17:00+24св434014 0.0 10021721
20:00+20ссв46562 0.0 1005130
11 августа, чт
чт1123:00+18ссв22630 0.0 100714
02:00+16ссз22700 0.0 100815
05:00+15ссз22718 0.0 100913
08:00+16ссз23615 0.0 1010162
11:00+21св11426 0.0 1008998
14:00+23юв553851 0.0 10072032
17:00+17с7758100 0.1 1010596
20:00+15ссв366726 0.1 1010324
12 августа, пт
пт1223:00+13ссз237498 0.0 101166
02:00+14сз2270100 0.0 101046
05:00+14с1169100 0.0 100911
08:00+15вюв2265100 0.0 1010191
11:00+18юв335481 0.1 1009758
14:00+21ю334297 0.1 10061216
17:00+23ю453784 0.0 10031381
20:00+19в3351100 0.1 100446
13 августа, сб
сб1323:00+15ссз2373100 0.0 100680
02:00+15ююв2574100 0.4 1006177
05:00+14св127567 0.2 1005153
08:00+15ссз1272100 0.2 1006217
11:00+14зюз3478100 1.4 1006145
14:00+16ююв5368100 1.6 1005497
17:00+15ююз4579100 0.8 1005311
20:00+14юз5881100 2.2 1006214
14 августа, вс
вс1423:00+12сз3380100 0.2 100842
02:00+13зюз3480100 1.6 1007109
05:00+13сз3376100 0.1 100736
08:00+14ссз246884 0.1 1008168
11:00+18ссв23474 0.1 10081251
14:00+20ссв543997 0.1 10071789
17:00+19ююз334195 0.0 1007978
20:00+16ююв11585 0.0 100911